Weather History for KOTM - February, 2014

Change the Weather History Date:

Wednesday, February 12, 2014

  Actual Average Record
Temperature  
Mean Temperature 17 °F 26 °F  
Max Temperature 23 °F 35 °F 71 °F (1990)
Min Temperature 10 °F 17 °F -13 °F (1988)
Degree Days  
Heating Degree Days 48 39  
Month to date heating degree days 688 485  
Since 1 July heating degree days 4852 4307  
Cooling Degree Days 0 0  
Month to date cooling degree days 0 0  
Year to date cooling degree days 0 0  
Moisture  
Dew Point 11 °F    
Average Humidity 78    
Maximum Humidity 96    
Minimum Humidity 59    
Precipitation  
Precipitation T in 0.04 in 1.12 in (1906)
Month to date precipitation 0.11 0.42  
Year to date precipitation 0.23 1.32  
Sea Level Pressure  
Sea Level Pressure 30.11 in    
Wind  
Wind Speed 7 mph (South)    
Max Wind Speed 18 mph    
Max Gust Speed 23 mph    
Visibility 6 miles    
Events Snow    
T = Trace of Precipitation, MM = Missing Value Source: NWS Daily Summary

Daily Weather History Graph

Daily Weather History Graph

Search for Another Location

Airport or City:

Trip Planner

Search our weather history database for the weather conditions in past years. The results will help you decide how hot, cold, wet, or windy it might be!

Date:

Astronomy

Feb. 12, 2014 Rise Set
Actual Time 7:08 AM CST 5:40 PM CST
Civil Twilight 6:39 AM CST 6:08 PM CST
Nautical Twilight 6:07 AM CST 6:41 PM CST
Astronomical Twilight 5:35 AM CST 7:13 PM CST
Moon 3:54 PM CST (2/12) 5:25 AM CST (2/12)
Length of Visible Light 11h 29m
Length of Day
10h 32m
Waxing Gibbous, 95% of the Moon is Illuminated
Feb 12
Waxing Gibbous
Feb 14
Full
Feb 22
Last Quarter
Mar 1
New
Mar 8
First Quarter

Hourly Weather History & Observations

Time (CST) Temp. Windchill Dew Point Humidity Pressure Visibility Wind Dir Wind Speed Gust Speed Precip Events Conditions
12:53 AM 10.0 °F -4.5 °F -0.0 °F 64% 30.28 in 10.0 mi South 11.5 mph - N/A   Overcast
1:53 AM 10.9 °F -4.1 °F -0.0 °F 61% 30.26 in 10.0 mi South 12.7 mph - N/A   Overcast
2:53 AM 10.9 °F -2.6 °F -0.0 °F 61% 30.25 in 10.0 mi SSE 10.4 mph - N/A   Overcast
3:53 AM 12.0 °F -1.3 °F 1.0 °F 61% 30.23 in 10.0 mi South 10.4 mph - N/A   Overcast
4:53 AM 12.0 °F -0.4 °F 1.9 °F 64% 30.22 in 10.0 mi South 9.2 mph - N/A   Overcast
5:53 AM 12.9 °F 0.7 °F 1.9 °F 62% 30.21 in 10.0 mi South 9.2 mph - N/A   Overcast
6:53 AM 12.9 °F -2.8 °F 1.9 °F 62% 30.17 in 10.0 mi South 15.0 mph - N/A   Overcast
7:53 AM 12.9 °F -1.6 °F 3.0 °F 65% 30.16 in 10.0 mi South 12.7 mph - N/A   Overcast
8:53 AM 16.0 °F 2.3 °F 3.9 °F 59% 30.17 in 10.0 mi South 12.7 mph - N/A   Overcast
9:53 AM 17.1 °F 8.7 °F 6.1 °F 62% 30.18 in 4.0 mi SSW 5.8 mph - 0.00 in Snow Light Snow
9:56 AM 17.1 °F 8.7 °F 7.0 °F 65% 30.13 in 2.5 mi SSW 5.8 mph - 0.00 in Snow Light Snow
10:05 AM 17.1 °F 8.7 °F 8.1 °F 68% 30.13 in 1.2 mi SSW 5.8 mph - 0.00 in Snow Light Snow
10:50 AM 17.6 °F 10.7 °F 12.2 °F 79% 30.12 in 2.5 mi SSW 4.6 mph - 0.00 in Snow Light Snow
10:53 AM 17.1 °F 8.7 °F 12.0 °F 81% 30.17 in 3.0 mi South 5.8 mph - 0.00 in Snow Light Snow
11:12 AM 18.0 °F 8.7 °F 12.9 °F 81% 30.12 in 2.0 mi SSW 6.9 mph - 0.00 in Snow Light Snow
11:17 AM 18.0 °F 7.7 °F 12.9 °F 81% 30.12 in 1.8 mi SSW 8.1 mph - 0.00 in Snow Light Snow
11:30 AM 18.0 °F 8.7 °F 14.0 °F 84% 30.10 in 2.0 mi SSW 6.9 mph - 0.00 in Snow Light Snow
11:40 AM 19.0 °F 11.1 °F 14.0 °F 81% 30.10 in 4.0 mi SSW 5.8 mph - 0.00 in Snow Light Snow
11:53 AM 19.0 °F 10.0 °F 15.1 °F 85% 30.14 in 4.0 mi South 6.9 mph - 0.00 in Snow Light Snow
12:31 PM 19.9 °F 12.1 °F 15.1 °F 81% 30.07 in 1.8 mi South 5.8 mph - 0.00 in Snow Light Snow
12:44 PM 19.9 °F - 16.0 °F 85% 30.06 in 1.2 mi Calm Calm - 0.00 in Snow Light Snow
12:53 PM 19.9 °F - 16.0 °F 85% 30.12 in 0.8 mi Calm Calm - 0.00 in Snow Light Snow
1:27 PM 19.9 °F 13.4 °F 17.1 °F 89% 30.05 in 1.2 mi South 4.6 mph - 0.00 in Snow Light Snow
1:34 PM 19.9 °F 13.4 °F 17.1 °F 89% 30.05 in 2.0 mi South 4.6 mph - 0.00 in Snow Light Snow
1:43 PM 19.9 °F 14.9 °F 16.0 °F 85% 30.04 in 3.0 mi SSE 3.5 mph - 0.00 in Snow Light Snow
1:53 PM 21.0 °F - 17.1 °F 85% 30.09 in 4.0 mi Calm Calm - 0.00 in   Overcast
2:31 PM 21.9 °F - 17.1 °F 82% 30.04 in 6.0 mi Calm Calm - N/A   Haze
2:53 PM 21.9 °F - 17.1 °F 82% 30.08 in 8.0 mi Calm Calm - N/A   Overcast
3:51 PM 21.2 °F 14.9 °F 17.6 °F 86% 30.03 in 5.0 mi ENE 4.6 mph - N/A   Haze
3:53 PM 21.9 °F 15.7 °F 17.1 °F 82% 30.08 in 5.0 mi NE 4.6 mph - N/A   Haze
4:53 PM 21.9 °F 14.5 °F 17.1 °F 82% 30.10 in 6.0 mi North 5.8 mph - N/A   Haze
5:09 PM 21.9 °F 15.7 °F 16.0 °F 78% 30.05 in 7.0 mi North 4.6 mph - N/A   Overcast
5:53 PM 21.9 °F 14.5 °F 16.0 °F 78% 30.06 in 7.0 mi ESE 5.8 mph - N/A   Overcast
6:31 PM 21.0 °F 12.4 °F 17.1 °F 85% 30.01 in 8.0 mi ESE 6.9 mph - N/A   Overcast
6:53 PM 21.0 °F 13.4 °F 16.0 °F 81% 30.05 in 7.0 mi ESE 5.8 mph - N/A   Overcast
7:53 PM 19.0 °F 12.3 °F 15.1 °F 85% 30.04 in 7.0 mi SE 4.6 mph - N/A   Mostly Cloudy
8:04 PM 18.0 °F 8.7 °F 12.9 °F 81% 29.99 in 7.0 mi SSE 6.9 mph - N/A   Scattered Clouds
8:53 PM 17.1 °F 7.6 °F 12.9 °F 84% 30.04 in 6.0 mi SSE 6.9 mph - N/A   Scattered Clouds
9:53 PM 15.1 °F 7.7 °F 12.0 °F 88% 30.04 in 5.0 mi South 4.6 mph - N/A   Partly Cloudy
10:53 PM 14.0 °F 5.1 °F 12.0 °F 92% 30.00 in 4.0 mi SSE 5.8 mph - N/A   Clear
11:53 PM 15.1 °F 6.4 °F 12.0 °F 88% 29.98 in 6.0 mi South 5.8 mph - N/A   Clear